NETSAT-1

导读

NETSAT-1是德国于2020年9月28日发射的一颗网络卫星,旨在开展近地轨道通信技术验证任务,支撑新型空间组网技术的在轨测试。作为德国小型通信试验卫星项目的开篇星,它搭载了先进的通信载荷,将验证下一代卫星网络的链路传输、组网协议等关键技术,为后续欧洲商业卫星互联网星座的部署积累工程经验,推动天地一体化网络技术的发展。

Basic Information
目录编号:
46506
目录名称:
NETSAT-1
国际标识:
2020-068W
轨道中心:
EARTH
卫星名称:
NETSAT-1
卫星全名:
--
卫星状态:
在轨 (已飞行2167 天)
发射日期:
2020-09-28 UTC
国别 :
德国 (DE)
星等 :
--
Orbit Information
数据来源 国际轨道数据
星历时间: 2026-09-02T07:16:07+0800
2天前
查看轨道信息
半长轴: 6835.352km
偏心率: 0.0006604
轨道倾角: 97.878°
近地点辐角 96.360°
升交点赤经 251.036°
平近点角 263.839°
近地点: 452.7km
远地点: 461.73km
周期: 93.735分钟
每日圈数: 15.362487
Detailed Information
使用方式:
暂无
2D Orbit Map
3D Orbit Map
Orbit Altitude Analysis Chart
Orbit Inclination Analysis Chart
Orbit Comprehensive Analysis Chart
View Comprehensive Chart
Conjunction Data List
Event ID Objects TCA Miss Dist (km) Collision Risk Probability Collision Risk Index (CRI) Action
CDM_260904-181604-650606-349321
NETSAT-1 (46506)
2026-09-04T
18:16:17+0000
1.450 km
极远距离
7.08442E-6 低风险 0.52
CDM_260905-013704-650606-491921
NETSAT-1 (46506)
2026-09-05T
01:37:46+0000
1.440 km
极远距离
4.379301E-6 低风险 0.48
CDM_260901-022304-650606-304322
NETSAT-1 (46506)
2026-09-01T
02:23:14+0000
2.071 km
极远距离
2.088413E-6 低风险 0.41
CDM_260905-014504-650605-361321
NETSAT-1 (46506)
2026-09-05T
01:45:02+0000
2.335 km
极远距离
1.833115E-6 低风险 0.4
CDM_260904-212304-650606-343621
NETSAT-1 (46506)
2026-09-04T
21:23:38+0000
2.423 km
极远距离
1.756586E-6 低风险 0.4
CDM_260904-144104-650605-884624
NETSAT-1 (46506)
2026-09-04T
14:41:34+0000
2.667 km
极远距离
1.563844E-6 低风险 0.39
CDM_260903-230804-650606-059221
NETSAT-1 (46506)
2026-09-03T
23:08:46+0000
2.325 km
极远距离
1.475033E-6 低风险 0.38
CDM_260904-164304-650605-257622
NETSAT-1 (46506)
2026-09-04T
16:43:19+0000
2.827 km
极远距离
1.394724E-6 低风险 0.38
CDM_260904-142204-650605-257621
NETSAT-1 (46506)
2026-09-04T
14:22:37+0000
2.858 km
极远距离
1.377472E-6 低风险 0.38